Regional Weather Roundup
Issued by NWS

Home | Current Version | Previous Version | Text Only | Print | Product List | Glossary Off
Versions: 1 2 3 4 5 6 7 8 9 10 11 12 13 14 15 16 17 18 19 20 21 22 23 24 25 26 27 28 29 30 31 32 33 34 35 36 37 38 39 40 41 42 43 44 45 46 47 48 49 50

000
ASUS43 KLOT 081603
RWRIL

ILLINOIS REGIONAL WEATHER ROUNDUP
NATIONAL WEATHER SERVICE CHICAGO/ROMEOVILLE IL
1000 AM CST MON FEB 08 2016

NOTE: "FAIR" INDICATES FEW OR NO CLOUDS BELOW 12,000 FEET WITH NO
SIGNIFICANT WEATHER AND/OR OBSTRUCTIONS TO VISIBILITY.

* THESE STATIONS ARE NOT UNDER NWS QUALITY CONTROL. THEY ALSO MAY NOT
  REPORT WEATHER SUCH AS PRECIPITATION OR FOG.

ILZ001-002-007-009-015-016-024-081700-
NORTHWEST ILLINOIS

CITY           SKY/WX    TMP DP  RH WIND       PRES   REMARKS
MOLINE         LGT SNOW  20  12  71 NW23      29.79R WCI   3
STERLING*      CLOUDY    21  14  73 W14       29.72R WCI   8
$$

ILZ003-004-008-010-011-017-018-081700-
NORTH CENTRAL ILLINOIS

CITY           SKY/WX    TMP DP  RH WIND       PRES   REMARKS
ROCKFORD       LGT SNOW  24  18  77 NW14      29.71S WCI  12
FREEPORT*      LGT SNOW  22  17  81 W14       29.73R WCI   9
DE KALB*       CLOUDY    25  21  83 W16       29.68R WCI  13
$$

ILZ005-006-012>014-019>023-081700-
NORTHEAST ILLINOIS

CITY           SKY/WX    TMP DP  RH WIND       PRES   REMARKS
CHICAGO-OHARE  CLOUDY    29  23  78 W10       29.65R WCI  20
CHICAGO-MIDWAY CLOUDY    31  20  63 W12       29.66R WCI  22
AURORA         CLOUDY    27  22  81 W17       29.69R WCI  14
LANSING*       CLOUDY    30  24  76 W14       29.67R WCI  20
WAUKEGAN       CLOUDY    28  24  85 W6        29.64R WCI  22
DUPAGE AIRPORT CLOUDY    27  20  75 W13       29.67R WCI  16
WHEELING       CLOUDY    29  22  75 W12       29.66R WCI  19
NORTHERLY ISL    N/A     31  22  69 W8          N/A  WCI  24
$$

LMZ740>746-081700-
SOUTHERN LAKE MICHIGAN

STATION/POSITION SKY/WX   TEMP    WIND        PRES    VSBY  WAVE
                          AIR SEA DIR/SP/G                  HT/PER
                          (F)     (DEG/KT/KT) (MB)    (MI)  (FT/S)
HARRISON CRIB              32     270/ 17/ 19   N/A
BURNHAM HARBOR             31     240/ 10/ 13   N/A
CALUMET HARBOR             31     260/  5/ 10 1003.5R
BURNS HARBOR               32     290/ 12/ 15 1004.4S
MICHIGAN CITY              32     240/ 13/ 16   N/A
$$

ILZ025>027-034>036-040-047-049-050-058-095>099-081700-
WEST-CENTRAL ILLINOIS

CITY           SKY/WX    TMP DP  RH WIND       PRES   REMARKS
QUINCY         LGT SNOW  20  13  74 NW23      29.87R WCI   3
MACOMB*        LGT SNOW  20  16  84 NW24      29.85R WCI   3
$$

ILZ028>032-037-038-041>044-048-051>054-059>061-081700-
CENTRAL ILLINOIS

CITY           SKY/WX    TMP DP  RH WIND       PRES   REMARKS
BLOOMINGTON    FLURRIES  22  18  85 W20       29.75R WCI   7
DECATUR        LGT SNOW  24  19  81 NW18G25   29.77R VSB 3/4 WCI  10
PEORIA         LGT SNOW  22  13  68 NW13G22   29.79R WCI  10
LINCOLN*       LGT SNOW  25  20  79 NW10G18   29.79R WCI  15
SPRINGFIELD    FLURRIES  25  18  74 NW17      29.81R WCI  12
TAYLORVILLE    NOT AVBL
$$

ILZ033-039-045-046-055>057-062-063-081700-
EAST-CENTRAL ILLINOIS

CITY           SKY/WX    TMP DP  RH WIND       PRES   REMARKS
CHAMPAIGN      CLOUDY    26  19  74 NW26G37   29.73R WCI  10
MATTOON        CLOUDY    27  20  75 NW22      29.74R WCI  13
$$

ILZ079-100>102-081700-
SOUTHWEST ILLINOIS

CITY           SKY/WX    TMP DP  RH WIND       PRES   REMARKS
ALTON          LGT SNOW  27  23  86 W18G26    29.85R WCI  13
BELLEVILLE     LGT SNOW  28  25  86 NW21G29   29.84R FOG     WCI  15
CAHOKIA*       CLOUDY    30  17  58 NW26G33   29.87R WCI  16
SPARTA*        LGT SNOW  30  20  65 NW13G22   29.86R VSB 1   WCI  20
$$

ILZ064>066-069>071-074>076-080>082-084>086-088>090-092>094-081700-
SOUTH-CENTRAL ILLINOIS

CITY           SKY/WX    TMP DP  RH WIND       PRES   REMARKS
CARBONDALE     CLOUDY    34  15  46 NW24G36   29.84R WCI  21
MARION         CLOUDY    36  19  51 W16G25    29.84R WCI  26
MT. VERNON     CLOUDY    32  18  55 W9G16     29.81R WCI  24
CENTRALIA*     LGT SNOW  31  28  88 W18       29.80S WCI  19
SALEM*         LGT SNOW  32  28  84 W22G31    29.79S WCI  19
$$

ILZ067-068-072-073-078-083-087-091-081700-
SOUTHEAST ILLINOIS

CITY           SKY/WX    TMP DP  RH WIND       PRES   REMARKS
LAWRENCEVILLE  MIX PCPN  34  32  92 W20       29.74S WCI  23
HARRISBURG*    PTSUNNY   35  24  65 NW21G29   29.81S WCI  24
ROBINSON*      SNOW      32  31  97 W14G20    29.74R VSB 1/2 WCI  22
CARMI*         CLOUDY    34  25  68 W21G28    29.79R WCI  23
$$

ABBREVIATIONS USED IN REMARKS
   TC - TEMPERATURE IN CELSIUS
  WCI - WIND CHILL INDEX
   HX - HEAT INDEX
  VSB - VISIBILITY
$$





USA.gov is the U.S. government's official web portal to all federal, state and local government web resources and services.